Location: Vienna
(48.2082°N, 16.3738°E)
Time: 20:31:20
(UTC+01:00)

ISS - Pass Details

Date: 26 November 2019
Orbit: 411 x 421 km, 51.6° (Epoch: 10 December)

Event Time Altitude Azimuth Distance (km) Brightness Sun altitude
Rises 16:48:39 0° 218° (SW) 2,343 1.3 -7.1°
Reaches altitude 10° 16:50:51 10° 208° (SSW) 1,486 -0.1 -7.4°
Maximum altitude 16:53:51 31° 144° (SE) 755 -2.6 -7.9°
Enters shadow 16:56:44 11° 81° (E) 1,451 -1.7 -8.4°
